JAL408 EDDF-RJTT

Flight info

Callsign JAL408
Flight time N/A
Altitude 33000
Route SULUS7S/18 SULUS Z650 VEMUT DCT PEPIK DCT BERVA DCT ERGOM DCT BUDOP DCT DVA DCT BULEN DCT RIXEN UA17 YAVRU UA4 SIV UW706 TBN UN61 GONPU/N0487F350 UN61 NOLGA DCT BARAD DCT SUBUT T916 BALUN/K0900F350 T916 PIGAL/K0896F370 M610 RULAD/K0893S1130 A343 POSOT B215 FKG W188 LIKMI W270 DKO W69 HUR B339 LADIX/K0907S1190 W34 VAPGU W100 ORAVA W201 UNSEK A326 DONVO G597 AGAVO/N0484F390 Y644 EGOBA Y697 LANAT Y71 XAC
Aircraft A35K/H-SDE2E3GHIJ3J4J5LM1ORWXY/LB1D1

Departure

Time N/A
Airport Frankfurt Main Airport (EDDF)

Arrival

Time 2026-02-21 22:13
Airport Tokyo Haneda International Airport (RJTT)
Time Latitude Longitude Altitude Speed Heading
2026-02-21 20:36 40.15051 116.97614 36947 ft 540 kts 160°
2026-02-21 20:36 39.89176 116.98447 37005 ft 438 kts 218°
2026-02-21 20:37 39.65694 116.84659 36986 ft 522 kts 192°
2026-02-21 20:37 39.36740 116.94875 36992 ft 527 kts 176°
2026-02-21 20:37 39.08293 117.05483 36969 ft 578 kts 154°
2026-02-21 20:37 38.90895 117.40941 36974 ft 612 kts 101°
2026-02-21 20:38 38.97707 117.81687 36979 ft 574 kts 47°
2026-02-21 20:38 39.13156 117.97473 36988 ft 508 kts
2026-02-21 20:38 39.16578 117.98170 36972 ft 491 kts 350°
2026-02-21 20:38 39.19974 117.97997 36963 ft 494 kts 349°
2026-02-21 20:39 39.23468 117.98507 36964 ft 518 kts
2026-02-21 20:39 39.26961 117.99933 36972 ft 535 kts 13°
2026-02-21 20:39 39.30302 118.02204 36972 ft 551 kts 24°
2026-02-21 20:39 39.33357 118.05275 36960 ft 565 kts 36°
2026-02-21 20:40 39.36008 118.09102 36960 ft 578 kts 47°
2026-02-21 20:40 39.38118 118.13586 36942 ft 589 kts 60°
2026-02-21 20:40 39.39556 118.18574 36959 ft 597 kts 72°
2026-02-21 20:40 39.40235 118.23877 36941 ft 601 kts 85°
2026-02-21 20:41 39.40106 118.29273 36958 ft 601 kts 98°
2026-02-21 20:41 39.39166 118.34506 36956 ft 597 kts 112°
2026-02-21 20:41 39.35628 118.44101 36958 ft 589 kts 124°
2026-02-21 20:42 39.31483 118.53217 36959 ft 588 kts 125°
2026-02-21 20:43 39.25488 118.67076 36908 ft 590 kts 123°
2026-02-21 20:43 39.21656 118.76445 36949 ft 591 kts 122°
2026-02-21 20:44 39.17855 118.85769 36950 ft 591 kts 123°
2026-02-21 20:44 39.14012 118.95136 36947 ft 591 kts 123°
2026-02-21 20:45 39.07950 119.09817 36947 ft 591 kts 123°
2026-02-21 20:45 39.00202 119.28461 36934 ft 591 kts 123°
2026-02-21 20:46 38.92422 119.47052 36943 ft 591 kts 123°
2026-02-21 20:46 38.84629 119.65594 36938 ft 589 kts 124°
2026-02-21 20:47 38.77290 119.84381 36912 ft 597 kts 111°
2026-02-21 20:47 38.73514 120.05155 36951 ft 599 kts 104°
2026-02-21 20:47 38.70637 120.14956 36916 ft 579 kts 129°
2026-02-21 20:48 38.65143 120.21909 36922 ft 539 kts 159°
2026-02-21 20:48 38.59029 120.27551 36922 ft 561 kts 142°
2026-02-21 20:48 38.54727 120.36116 36917 ft 588 kts 117°
2026-02-21 20:48 38.52663 120.46351 36911 ft 601 kts 103°
2026-02-21 20:49 38.51650 120.56981 36909 ft 605 kts 99°
2026-02-21 20:49 38.49785 120.78300 36903 ft 604 kts 101°
2026-02-21 20:50 38.47502 120.99516 36888 ft 602 kts 102°
2026-02-21 20:50 38.45186 121.20659 36862 ft 601 kts 102°
2026-02-21 20:51 38.42203 121.41598 36846 ft 599 kts 107°
2026-02-21 20:51 38.38575 121.62325 36840 ft 601 kts 107°
2026-02-21 20:52 38.35054 121.83193 36813 ft 603 kts 107°
2026-02-21 20:52 38.31501 122.04136 36848 ft 606 kts 107°
2026-02-21 20:53 38.27897 122.25097 36837 ft 606 kts 107°
2026-02-21 20:53 38.23603 122.45477 36826 ft 586 kts 126°
2026-02-21 20:53 38.18808 122.53523 36820 ft 565 kts 142°
2026-02-21 20:54 38.13380 122.60662 36826 ft 560 kts 145°
2026-02-21 20:54 38.02334 122.74609 36821 ft 561 kts 144°
2026-02-21 20:55 37.91415 122.88745 36818 ft 561 kts 144°
2026-02-21 20:55 37.80475 123.02859 36813 ft 563 kts 144°
2026-02-21 20:56 37.69472 123.16979 36787 ft 563 kts 144°
2026-02-21 20:56 37.58483 123.31047 36807 ft 563 kts 143°
2026-02-21 20:57 37.48598 123.46769 36797 ft 574 kts 135°
2026-02-21 20:57 37.39058 123.62843 36798 ft 573 kts 135°
2026-02-21 20:58 37.29473 123.78816 36793 ft 570 kts 136°
2026-02-21 20:58 37.20057 123.94822 36781 ft 579 kts 128°
2026-02-21 20:58 37.17234 124.04506 36797 ft 609 kts 103°
2026-02-21 20:59 37.16991 124.15195 37105 ft 615 kts 90°
2026-02-21 20:59 37.17430 124.25779 37381 ft 617 kts 88°
2026-02-21 20:59 37.17900 124.36660 37644 ft 617 kts 89°
2026-02-21 20:59 37.18211 124.47256 38044 ft 615 kts 90°
2026-02-21 21:00 37.18437 124.57940 38457 ft 612 kts 90°
2026-02-21 21:00 37.18643 124.68632 38617 ft 614 kts 90°
2026-02-21 21:00 37.18857 124.79312 38754 ft 612 kts 90°
2026-02-21 21:01 37.19155 124.93859 38825 ft 604 kts 89°
2026-02-21 21:01 37.19355 125.04331 38795 ft 604 kts 91°
2026-02-21 21:02 37.19543 125.14941 38762 ft 610 kts 91°
2026-02-21 21:02 37.19725 125.25573 38739 ft 610 kts 90°
2026-02-21 21:03 37.19898 125.36202 38764 ft 610 kts 91°
2026-02-21 21:03 37.20036 125.45042 38764 ft 610 kts 91°
2026-02-21 21:04 37.20196 125.55671 38763 ft 610 kts 91°
2026-02-21 21:04 37.20341 125.66299 38768 ft 609 kts 91°
2026-02-21 21:05 37.20472 125.76902 38743 ft 608 kts 91°
2026-02-21 21:05 37.20602 125.87511 38774 ft 607 kts 91°
2026-02-21 21:06 37.20718 125.98080 38779 ft 607 kts 91°
2026-02-21 21:06 37.20823 126.08676 38779 ft 607 kts 91°
2026-02-21 21:07 37.20979 126.26092 38755 ft 607 kts 91°
2026-02-21 21:07 37.21138 126.47243 38784 ft 605 kts 92°
2026-02-21 21:08 37.21255 126.68326 38820 ft 604 kts 92°
2026-02-21 21:08 37.21375 126.89231 38788 ft 603 kts 89°
2026-02-21 21:08 37.23145 126.99483 38753 ft 603 kts 66°
2026-02-21 21:09 37.27595 127.08249 38849 ft 594 kts 46°
2026-02-21 21:09 37.38544 127.23670 38796 ft 590 kts 42°
2026-02-21 21:10 37.48565 127.40045 38826 ft 602 kts 66°
2026-02-21 21:10 37.50887 127.50154 38807 ft 602 kts 78°
2026-02-21 21:10 37.52556 127.60482 38813 ft 601 kts 80°
2026-02-21 21:11 37.55651 127.81185 38828 ft 600 kts 80°
2026-02-21 21:11 37.58880 128.01815 38825 ft 599 kts 80°
2026-02-21 21:12 37.62075 128.22395 38806 ft 597 kts 80°
2026-02-21 21:12 37.65197 128.42843 38794 ft 593 kts 81°
2026-02-21 21:13 37.68293 128.63310 38772 ft 590 kts 81°
2026-02-21 21:13 37.68678 128.73545 38751 ft 579 kts 101°
2026-02-21 21:13 37.66401 128.83048 38743 ft 559 kts 124°
2026-02-21 21:14 37.58548 128.99771 38735 ft 552 kts 130°
2026-02-21 21:14 37.50454 129.16244 38744 ft 554 kts 129°
2026-02-21 21:15 37.42465 129.32758 38760 ft 556 kts 129°
2026-02-21 21:15 37.34333 129.49498 38774 ft 559 kts 129°
2026-02-21 21:16 37.26236 129.66064 38784 ft 561 kts 130°
2026-02-21 21:16 37.18039 129.82748 38788 ft 562 kts 129°
2026-02-21 21:17 37.09814 129.99439 38812 ft 563 kts 130°
2026-02-21 21:17 37.01548 130.16078 38822 ft 562 kts 129°
2026-02-21 21:18 36.93268 130.32676 38841 ft 563 kts 129°
2026-02-21 21:18 36.87212 130.44778 38849 ft 563 kts 129°
2026-02-21 21:19 36.83053 130.53060 38853 ft 564 kts 129°
2026-02-21 21:19 36.78876 130.61359 38862 ft 564 kts 129°
2026-02-21 21:20 36.74700 130.69638 38868 ft 564 kts 129°
2026-02-21 21:20 36.70515 130.77923 38870 ft 564 kts 129°
2026-02-21 21:21 36.66323 130.86183 38873 ft 564 kts 129°
2026-02-21 21:21 36.62122 130.94443 38873 ft 565 kts 129°
2026-02-21 21:22 36.57913 131.02701 38878 ft 565 kts 129°
2026-02-21 21:22 36.54261 131.11430 38900 ft 579 kts 115°
2026-02-21 21:23 36.51292 131.24069 38892 ft 584 kts 108°
2026-02-21 21:23 36.47514 131.43708 38904 ft 584 kts 108°
2026-02-21 21:24 36.43557 131.63225 38914 ft 582 kts 108°
2026-02-21 21:24 36.39391 131.83361 38928 ft 582 kts 108°
2026-02-21 21:25 36.31266 132.22231 38937 ft 582 kts 108°
2026-02-21 21:25 36.27943 132.37934 38964 ft 582 kts 108°
2026-02-21 21:26 36.25881 132.47624 38963 ft 582 kts 108°
2026-02-21 21:26 36.23806 132.57327 38963 ft 582 kts 108°
2026-02-21 21:27 36.21726 132.67015 38962 ft 583 kts 108°
2026-02-21 21:27 36.19637 132.76703 38973 ft 582 kts 108°
2026-02-21 21:28 36.17540 132.86391 38983 ft 582 kts 108°
2026-02-21 21:28 36.15437 132.96063 38983 ft 582 kts 108°
2026-02-21 21:29 36.13324 133.05733 38979 ft 582 kts 108°
2026-02-21 21:29 36.11203 133.15404 38992 ft 582 kts 108°
2026-02-21 21:30 36.09076 133.25063 38996 ft 582 kts 108°
2026-02-21 21:30 36.06943 133.34705 39001 ft 582 kts 108°
2026-02-21 21:31 36.04800 133.44355 39002 ft 582 kts 108°
2026-02-21 21:31 36.02649 133.54005 39000 ft 582 kts 108°
2026-02-21 21:32 36.00491 133.63644 39007 ft 582 kts 108°
2026-02-21 21:32 35.98325 133.73275 39012 ft 582 kts 108°
2026-02-21 21:33 35.96152 133.82899 39020 ft 582 kts 108°
2026-02-21 21:33 35.93985 133.92459 39017 ft 582 kts 108°
2026-02-21 21:34 35.91796 134.02078 39015 ft 582 kts 108°
2026-02-21 21:34 35.89598 134.11691 39023 ft 582 kts 108°
2026-02-21 21:35 35.87395 134.21295 39023 ft 582 kts 108°
2026-02-21 21:35 35.84071 134.35710 39025 ft 582 kts 108°
2026-02-21 21:36 35.81848 134.45304 39029 ft 582 kts 108°
2026-02-21 21:36 35.79616 134.54896 39040 ft 582 kts 109°
2026-02-21 21:37 35.77378 134.64477 39039 ft 583 kts 109°
2026-02-21 21:37 35.75128 134.74067 39053 ft 583 kts 109°
2026-02-21 21:38 35.72872 134.83649 39041 ft 582 kts 109°
2026-02-21 21:38 35.70615 134.93200 39058 ft 581 kts 109°
2026-02-21 21:39 35.67937 135.04478 39064 ft 581 kts 109°
2026-02-21 21:39 35.65664 135.14013 39061 ft 581 kts 109°
2026-02-21 21:40 35.63381 135.23551 39067 ft 582 kts 109°
2026-02-21 21:40 35.61092 135.33078 39071 ft 582 kts 109°
2026-02-21 21:41 35.58808 135.42548 39071 ft 582 kts 109°
2026-02-21 21:41 35.56501 135.52077 39088 ft 582 kts 109°
2026-02-21 21:42 35.51366 135.73158 39082 ft 582 kts 109°
2026-02-21 21:42 35.42005 136.11139 39108 ft 581 kts 109°
2026-02-21 21:43 35.32520 136.49046 39130 ft 582 kts 109°
2026-02-21 21:43 35.22916 136.86879 39171 ft 581 kts 109°
2026-02-21 21:44 35.16219 137.12936 39139 ft 581 kts 109°
2026-02-21 21:44 35.11339 137.31757 39151 ft 582 kts 109°
2026-02-21 21:45 35.06420 137.50598 39158 ft 582 kts 110°
2026-02-21 21:45 35.01474 137.69408 39168 ft 582 kts 110°
2026-02-21 21:46 34.98426 137.80908 39190 ft 583 kts 110°
2026-02-21 21:46 34.95936 137.90307 39178 ft 582 kts 110°
2026-02-21 21:47 34.93459 137.99615 39183 ft 582 kts 110°
2026-02-21 21:47 34.90979 138.08903 39176 ft 571 kts 110°
2026-02-21 21:48 34.88520 138.18072 39179 ft 568 kts 110°
2026-02-21 21:48 34.86058 138.27207 39152 ft 568 kts 110°
2026-02-21 21:49 34.83587 138.36347 39182 ft 569 kts 110°
2026-02-21 21:49 34.81127 138.45422 39091 ft 566 kts 110°
2026-02-21 21:50 34.79892 138.49969 38870 ft 568 kts 110°
2026-02-21 21:50 34.78658 138.54504 38669 ft 559 kts 110°
2026-02-21 21:50 34.77446 138.58958 38115 ft 552 kts 110°
2026-02-21 21:50 34.76233 138.63399 37276 ft 553 kts 110°
2026-02-21 21:51 34.75020 138.67833 36469 ft 553 kts 110°
2026-02-21 21:51 34.73806 138.72265 35643 ft 553 kts 110°
2026-02-21 21:51 34.72616 138.76711 34835 ft 553 kts 108°
2026-02-21 21:51 34.71836 138.81253 34306 ft 547 kts 98°
2026-02-21 21:52 34.71516 138.85866 33320 ft 547 kts 93°
2026-02-21 21:52 34.71390 138.90482 32356 ft 547 kts 91°
2026-02-21 21:52 34.71362 138.95073 31313 ft 536 kts 90°
2026-02-21 21:52 34.71376 138.99568 29638 ft 528 kts 89°
2026-02-21 21:53 34.71398 139.04007 27819 ft 522 kts 89°
2026-02-21 21:53 34.71406 139.08373 26216 ft 512 kts 89°
2026-02-21 21:53 34.71400 139.12649 24750 ft 500 kts 89°
2026-02-21 21:53 34.71392 139.15414 23828 ft 492 kts 90°
2026-02-21 21:54 34.71375 139.19517 22166 ft 480 kts 90°
2026-02-21 21:54 34.71355 139.23533 20533 ft 470 kts 90°
2026-02-21 21:54 34.71331 139.27442 19509 ft 451 kts 90°
2026-02-21 21:54 34.71306 139.31195 19063 ft 438 kts 90°
2026-02-21 21:55 34.71279 139.34856 18508 ft 430 kts 90°
2026-02-21 21:55 34.71368 139.39622 17670 ft 421 kts 82°
2026-02-21 21:55 34.71785 139.41953 17254 ft 416 kts 71°
2026-02-21 21:55 34.72989 139.45112 16659 ft 410 kts 59°
2026-02-21 21:56 34.74427 139.48084 16051 ft 406 kts 57°
2026-02-21 21:56 34.75884 139.51012 15457 ft 402 kts 57°
2026-02-21 21:56 34.77320 139.53912 14866 ft 398 kts 57°
2026-02-21 21:56 34.78739 139.56793 14268 ft 395 kts 58°
2026-02-21 21:57 34.80120 139.59610 13649 ft 391 kts 58°
2026-02-21 21:57 34.81499 139.62435 13008 ft 387 kts 58°
2026-02-21 21:57 34.82881 139.65275 12294 ft 382 kts 58°
2026-02-21 21:57 34.84225 139.68039 11688 ft 378 kts 58°
2026-02-21 21:58 34.85528 139.70721 11357 ft 365 kts 58°
2026-02-21 21:58 34.86785 139.73314 11222 ft 346 kts 58°
2026-02-21 21:58 34.87974 139.75767 11098 ft 328 kts 58°
2026-02-21 21:58 34.89106 139.78097 10966 ft 312 kts 58°
2026-02-21 21:59 34.90184 139.80313 10836 ft 298 kts 58°
2026-02-21 21:59 34.91250 139.82495 10533 ft 303 kts 58°
2026-02-21 21:59 34.92331 139.84712 10167 ft 303 kts 58°
2026-02-21 21:59 34.93407 139.86918 9787 ft 302 kts 57°
2026-02-21 22:00 34.94704 139.88900 9388 ft 299 kts 39°
2026-02-21 22:00 34.96498 139.90095 9000 ft 293 kts 16°
2026-02-21 22:00 34.98465 139.90732 8611 ft 291 kts 11°
2026-02-21 22:00 35.00435 139.91270 8232 ft 290 kts 10°
2026-02-21 22:01 35.02402 139.91799 7928 ft 288 kts 10°
2026-02-21 22:01 35.04366 139.92327 7818 ft 289 kts 10°
2026-02-21 22:01 35.06327 139.92856 7718 ft 288 kts
2026-02-21 22:01 35.08284 139.93386 7611 ft 288 kts
2026-02-21 22:02 35.10237 139.93924 7517 ft 288 kts 10°
2026-02-21 22:02 35.12192 139.94469 7415 ft 288 kts 10°
2026-02-21 22:02 35.14140 139.95016 7300 ft 287 kts 10°
2026-02-21 22:02 35.16088 139.95565 7216 ft 287 kts 10°
2026-02-21 22:03 35.18018 139.96111 6971 ft 279 kts 10°
2026-02-21 22:03 35.19861 139.96635 6576 ft 264 kts 10°
2026-02-21 22:03 35.21591 139.97129 6295 ft 248 kts 10°
2026-02-21 22:03 35.23208 139.97587 6067 ft 229 kts 10°
2026-02-21 22:04 35.24700 139.97840 5891 ft 205 kts 359°
2026-02-21 22:04 35.26036 139.97709 5759 ft 183 kts 344°
2026-02-21 22:04 35.27195 139.97263 5611 ft 167 kts 331°
2026-02-21 22:04 35.28187 139.96642 5491 ft 155 kts 323°
2026-02-21 22:05 35.29095 139.95998 5380 ft 149 kts 322°
2026-02-21 22:05 35.30000 139.95347 5321 ft 153 kts 322°
2026-02-21 22:05 35.30921 139.94691 5227 ft 153 kts 322°
2026-02-21 22:05 35.31838 139.94041 5081 ft 149 kts 322°
2026-02-21 22:06 35.32708 139.93431 4995 ft 138 kts 322°
2026-02-21 22:06 35.33524 139.92860 4972 ft 135 kts 322°
2026-02-21 22:06 35.34356 139.92274 4657 ft 141 kts 322°
2026-02-21 22:06 35.35222 139.91655 4269 ft 147 kts 322°
2026-02-21 22:07 35.36107 139.90999 3947 ft 150 kts 322°
2026-02-21 22:07 35.37016 139.90347 3660 ft 153 kts 326°
2026-02-21 22:07 35.37977 139.89786 3453 ft 152 kts 329°
2026-02-21 22:07 35.38898 139.89191 3194 ft 147 kts 321°
2026-02-21 22:08 35.39766 139.88503 2905 ft 150 kts 321°
2026-02-21 22:08 35.40637 139.87794 2624 ft 151 kts 321°
2026-02-21 22:08 35.41576 139.87192 2347 ft 153 kts 332°
2026-02-21 22:08 35.42520 139.86595 2120 ft 148 kts 323°
2026-02-21 22:09 35.43346 139.85932 2091 ft 139 kts 323°
2026-02-21 22:09 35.44172 139.85317 2087 ft 139 kts 326°
2026-02-21 22:09 35.45011 139.84720 2025 ft 140 kts 326°
2026-02-21 22:09 35.45853 139.84122 1836 ft 139 kts 327°
2026-02-21 22:10 35.46690 139.83526 1652 ft 139 kts 327°
2026-02-21 22:10 35.47521 139.82935 1453 ft 138 kts 327°
2026-02-21 22:10 35.48350 139.82345 1277 ft 137 kts 327°
2026-02-21 22:10 35.49172 139.81760 1084 ft 136 kts 328°
2026-02-21 22:11 35.49986 139.81180 890 ft 134 kts 329°
2026-02-21 22:11 35.50786 139.80611 715 ft 132 kts 330°
2026-02-21 22:11 35.51564 139.80058 538 ft 128 kts 330°
2026-02-21 22:11 35.52331 139.79517 381 ft 127 kts 331°
2026-02-21 22:12 35.53090 139.78970 214 ft 125 kts 331°
2026-02-21 22:12 35.53847 139.78435 51 ft 124 kts 330°
2026-02-21 22:12 35.54543 139.77942 31 ft 105 kts 330°
2026-02-21 22:12 35.55079 139.77562 31 ft 67 kts 330°
2026-02-21 22:13 35.55296 139.77280 29 ft 18 kts 292°
2026-02-21 22:13 35.55239 139.77201 29 ft 14 kts 172°
2026-02-21 22:13 35.55145 139.77257 29 ft 17 kts 149°
2026-02-21 22:13 35.55033 139.77336 29 ft 20 kts 150°
2026-02-21 22:14 35.54907 139.77416 29 ft 14 kts 172°
2026-02-21 22:14 35.54862 139.77371 29 ft 9 kts 240°
2026-02-21 22:14 35.54821 139.77282 29 ft 15 kts 240°
2026-02-21 22:14 35.54761 139.77156 28 ft 20 kts 240°
2026-02-21 22:15 35.54647 139.77112 29 ft 19 kts 154°
2026-02-21 22:15 35.54534 139.77188 29 ft 16 kts 150°
2026-02-21 22:15 35.54435 139.77258 29 ft 11 kts 150°
2026-02-21 22:15 35.54421 139.77268 29 ft 4 kts 151°
2026-02-21 22:16 35.54389 139.77261 29 ft 5 kts 217°
2026-02-21 22:16 35.54363 139.77215 29 ft 7 kts 239°
2026-02-21 22:16 35.54349 139.77185 29 ft 2 kts 239°
2026-02-21 22:16 35.54347 139.77181 29 ft 0 kts 239°